Flag for Germany Weather past 2 weeks in Oberursel (Taunus), Hesse, Germany

Now
40 °F

Low clouds.


Feels Like: 36 °F
Forecast: 33 / 38 °F
Wind: 6 mph from Northwest

Location: Frankfurt / M-Flughafen

Current Time: Dec 25, 2014 at 9:00:55 PM

Latest Report: Dec 25, 2014 at 8:00 PM


Visibility: 25 mi

Pressure: 30.33 "Hg

Humidity: 85%

Dew point: 36 °F

Location of Oberursel (Taunus)Location

Historic Weather in Oberursel (Taunus) — Graph

°F

Oberursel (Taunus) temperature yesterday

Maximum temperature yesterday: 48 °F (at 5:00 PM)
Minimum temperature yesterday: 41 °F (at 7:00 AM)
Average temperature yesterday: 45 °F

Past Weeks' High & Low Weather Summary

 TemperatureHumidityPressure
High57 °F (Dec 18, 9:00 PM)100% (Dec 13, 6:00 AM)30.49 "Hg (Dec 13, 6:00 AM)
Low32 °F (Dec 17, 4:00 AM)67% (Dec 12, 8:00 PM)29.62 "Hg (Dec 12, 6:00 PM)
Average44 °F87%30.05 "Hg
* Reported Dec 10 8:00 PM — Dec 25 8:00 PM, Oberursel (Taunus), Weather by CustomWeather, © 2014

Note: Actual official high and low records may vary slightly from our data, if they occured in-between our weather recording intervals... More about our weather records

Advertising

Oberursel (Taunus) weather history for previous 24 hours

 ConditionsComfort  
Time TempWeatherWind HumidityBarometerVisibility
8:00 PM
Dec 25
40 °FLow clouds.6 mph85%30.33 "Hg25 mi
7:00 PM40 °FLow clouds.6 mph91%30.32 "Hg19 mi
6:00 PM42 °FSprinkles. Overcast.7 mph75%30.30 "Hg22 mi
5:00 PM43 °FPassing clouds.7 mph72%30.28 "Hg22 mi
3:00 PM44 °FOvercast.6 mph69%30.27 "Hg28 mi
2:00 PM43 °FOvercast.7 mph72%30.27 "Hg28 mi
1:00 PM43 °FOvercast.8 mph72%30.28 "Hg28 mi
12:00 PM42 °FPartly sunny.8 mph73%30.28 "Hg31 mi
11:00 AM41 °FScattered clouds.9 mph74%30.29 "Hg28 mi
9:00 AM38 °FScattered clouds.6 mph82%30.26 "Hg31 mi
8:00 AM38 °FPassing clouds.6 mph79%30.25 "Hg31 mi
7:00 AM40 °FOvercast.5 mph75%30.23 "Hg28 mi
6:00 AM39 °FOvercast.6 mph78%30.23 "Hg25 mi
5:00 AM40 °FOvercast.6 mph76%30.22 "Hg25 mi
4:00 AM42 °FPassing clouds.3 mph69%30.21 "Hg25 mi
3:00 AM40 °FPassing clouds.6 mph94%30.20 "Hg25 mi
2:00 AM44 °FOvercast.6 mph77%30.17 "Hg25 mi
1:00 AM44 °FOvercast.3 mph83%30.16 "Hg22 mi
12:00 AM45 °FLight rain. Low clouds.8 mph92%30.14 "Hg9 mi
11:00 PM
Dec 24
47 °FLight rain. Overcast.7 mph92%30.10 "Hg5 mi
9:00 PM47 °FOvercast.8 mph85%30.09 "Hg19 mi
Weather by CustomWeather, © 2014

See weather overviewHow to use our weather pages